Delta Virtual Airport Information Service

Kansas City International Airport

ICAO: KMCI Country: United States
Latitude: 39.2976 Longitude: -94.7139
Latest Arrival : DAC8038 (KMSP-KMCI) Latest Departure : DAC8038 (KMCI-KICT)


WX CaptureLIVE
Data provided by noaa.gov | Fetched at 23:24:03

METAR : KMCI 120353Z 10007KT 10SM OVC130 13/04 A3034 RMK AO2 SLP271 T01330044

TAF : KMCI 112323Z 1200/1224 09013KT P6SM OVC060 FM120600 06007KT P6SM BKN120 FM121500 10012KT P6SM SCT050 SCT120


Runway Data for KMCI
Data provided by openaviationdata.com

Runway ID Mag Var Hdg Length Elevation Surface ILS Freq ILS Id ILS Slope
01L 4 10810 ft 1026 ft Concrete 110.5 IDOT 3
01R 4 9507 ft 1026 ft Concrete 110.75 IPVL 3
9 4 91° 9487 ft 1026 ft Asphalt 109.7 IRNI 3
19L 4 188° 9507 ft 1026 ft Concrete 109.55 IDYH 3
19R 4 188° 10810 ft 1026 ft Concrete 109.1 IPAJ 3
27 4 271° 9487 ft 1026 ft Asphalt 109.7 IUQY 3

Kansas City International Airport, United States
Use only for reference purposes



Not for navigational purposes.